Voltar ao catálogo

DEBUT

ORIZURU

AtivoCiênciaPO
NORAD 20479·PAYLOAD·🇯🇵 Japan

Lançado Feb 7, 1990 de Tanegashima Space Center

Loading…

Próximas Passagens (próximas 24 horas)

TLE

AtualizadoSource: Space-Track

Época: Sep 14, 2026, 12:09 UTC

1 20479U 90013B   26257.50667486 -.00000045  00000-0 -20282-4 0  9998
2 20479  99.0643 169.0608 0537603 286.7571  67.5222 12.84042532715036

Acompanhe DEBUT em tempo real com AllMySat

Download on the App Store